Regional Weather Roundup
Issued by NWS

Home | Current Version | Previous Version | Text Only | Print | Product List | Glossary Off
Versions: 1 2 3 4 5 6 7 8 9 10 11 12 13 14 15 16 17 18 19 20 21 22 23 24 25 26 27 28 29 30 31 32 33 34 35 36 37 38 39 40 41 42 43 44 45 46 47 48 49 50

000
ASUS43 KDTX 280610
RWRMI
MICHIGAN HOURLY REGIONAL WEATHER ROUNDUP
NATIONAL WEATHER SERVICE DETROIT/PONTIAC MI
200 AM EDT SUN AUG 28 2016

NOTE: "FAIR" INDICATES FEW OR NO CLOUDS BELOW 12,000 FEET WITH NO
SIGNIFICANT WEATHER AND/OR OBSTRUCTION TO VISIBILITY.

MIZ047>049-052>055-059>063-066>070-074>076-081>083-280700-
SOUTHEAST LOWER MICHIGAN

CITY           SKY/WX    TMP DP  RH WIND       PRES   REMARKS
ADRIAN         FOG       70  70 100 CALM      30.14F VSB 1/4
6HR MIN TEMP:  69; 6HR MAX TEMP:  73;

ALMA           MOCLDY    71  71 100 W7        30.10S FOG
ANN ARBOR      CLOUDY    72  72 100 S6        30.12F FOG
BAD AXE        CLOUDY    68  68 100 SW6       30.12R FOG
CARO           FAIR      69  69  98 S5        30.11R FOG
DETROIT CITY   FAIR      71  71 100 CALM      30.13S
6HR MIN TEMP:  71; 6HR MAX TEMP:  73;

DETROIT        CLOUDY    71  70  96 S3        30.13F FOG
6HR MIN TEMP:  71; 6HR MAX TEMP:  73;

FLINT          CLOUDY    75  70  84 S6        30.12S
6HR MIN TEMP:  73; 6HR MAX TEMP:  75;

GROSSE ILE     FAIR      71  70  97 CALM      30.11F FOG
6HR MIN TEMP:  71; 6HR MAX TEMP:  75;

HILLSDALE      FOG       70  69  96 CALM      30.14F VSB 1/2
6HR MIN TEMP:  51; 6HR MAX TEMP:  84;

HOWELL         CLOUDY    72  71  97 S8        30.12F FOG

CITY           SKY/WX    TMP DP  RH WIND       PRES   REMARKS
JACKSON        FAIR      71  71 100 S3        30.13S
6HR MIN TEMP:  71; 6HR MAX TEMP:  75;

LAMBERTVILLE   FOG       70  68  94 CALM      30.13F VSB 1/2
6HR MIN TEMP:  69; 6HR MAX TEMP:  74;

LANSING        FAIR      72  69  90 S8        30.11F
6HR MIN TEMP:  72; 6HR MAX TEMP:  75;

LAPEER         FAIR      68  67  97 CALM      30.13S FOG
6HR MIN TEMP:  68; 6HR MAX TEMP:  70;

MASON          FAIR      70  70 100 S7        30.12F FOG
MONROE         FOG       67  67 100 S5        30.12F VSB 1/4
6HR MIN TEMP:  67; 6HR MAX TEMP:  74;

MT. CLEMENS    FOG       68  68 100 CALM      30.10F VSB 3/4
6HR MIN TEMP:  68; 6HR MAX TEMP:  72;

PONTIAC        CLOUDY    71  69  93 SW5       30.12F
6HR MIN TEMP:  70; 6HR MAX TEMP:  72;

PORT HURON     FOG       64  64 100 CALM      30.13F VSB 1/4
TRI CITIES     MOCLDY    71  71 100 S10       30.10S
6HR MIN TEMP:  69; 6HR MAX TEMP:  74;

MIDLAND        CLOUDY    71  70  99 S8        30.08S
6HR MIN TEMP:  67; 6HR MAX TEMP:  73;

TROY           CLOUDY    73  70  92 SW3       30.14F FOG
SAGINAW HB     CLOUDY    72  70  94 S8        30.09F
$$
MIZ043>046-050>051-056>058-064>065-071>073-077>080-280700-
SOUTHWEST LOWER MICHIGAN

CITY           SKY/WX    TMP DP  RH WIND       PRES   REMARKS
BATTLE CREEK   FAIR      70  70 100 S9        30.13R
6HR MIN TEMP:  70; 6HR MAX TEMP:  75;

BENTON HARBOR  FAIR      73  71  93 CALM      30.10S
6HR MIN TEMP:  73; 6HR MAX TEMP:  81;

BIG RAPIDS     FAIR      71  70  97 S5        30.09S
6HR MIN TEMP:  69; 6HR MAX TEMP:  74; 6HR PCP:  0.19;

COLDWATER      FAIR      70  70 100 CALM      30.13S FOG
6HR MIN TEMP:  70; 6HR MAX TEMP:  77;

FREMONT        MOCLDY    70  69  98 CALM      30.09R FOG
6HR MIN TEMP:  70; 6HR MAX TEMP:  73;

HOLLAND        FAIR      75  73  93 SW6       30.10R
6HR MIN TEMP:  72; 6HR MAX TEMP:  78; 6HR PCP: TRACE;

GRAND RAPIDS   FAIR      72  69  90 S5        30.10R
6HR MIN TEMP:  71; 6HR MAX TEMP:  77; 6HR PCP:  0.19;

IONIA          FAIR      71  69  95 SW6       30.09S
6HR MIN TEMP:  69; 6HR MAX TEMP:  73; 6HR PCP:  0.05;

KALAMAZOO      FAIR      73  70  90 S6        30.12R
6HR MIN TEMP:  73; 6HR MAX TEMP:  79;

LUDINGTON      CLOUDY    69  69 100 W6        30.09R FOG
6HR MIN TEMP:  69; 6HR MAX TEMP:  74; 6HR PCP:  0.04;

MARSHALL       FAIR      72  72 100 S5        30.12S
MOUNT PLEASANT MOCLDY    72  70  96 S3        30.08S
6HR MIN TEMP:  69; 6HR MAX TEMP:  73;

MUSKEGON       FAIR      73  72  96 SW5       30.09R
6HR MIN TEMP:  73; 6HR MAX TEMP:  77;

SOUTH HAVEN    FAIR      76  74  95 CALM      30.09F
$$
MIZ016>042-280700-
NORTHERN LOWER MICHIGAN

CITY           SKY/WX    TMP DP  RH WIND       PRES   REMARKS
ALPENA         FAIR      69  66  90 S6        30.06F
6HR MIN TEMP:  67; 6HR MAX TEMP:  70;

BEAVER ISLAND  CLOUDY    66  65  98 W5        30.04S
6HR MIN TEMP:  64; 6HR MAX TEMP:  66;

BELLAIRE       CLOUDY    70  68  92 S3        30.05S
6HR MIN TEMP:  70; 6HR MAX TEMP:  72;

CADILLAC       CLOUDY    68  67  96 SW5       30.09S
CHARLEVOIX     CLOUDY    69  69  99 SW6       30.07S
6HR MIN TEMP:  69; 6HR MAX TEMP:  71;

FRANKFORT      MOCLDY    69  66  93 CALM      30.07S
GAYLORD        MOCLDY    70  66  87 SW10      30.08S
6HR MIN TEMP:  67; 6HR MAX TEMP:  71;

GRAYLING       CLOUDY    70  68  95 SW5       30.09S
HARBOR SPRINGS CLOUDY    68  68  98 CALM      30.04S
HOUGHTON LAKE  CLOUDY    69  67  93 SW3       30.10S
6HR MIN TEMP:  67; 6HR MAX TEMP:  69;

MANISTEE       CLOUDY    70  69  97 SW5       30.07S
OSCODA         CLOUDY    71  70  97 S6        30.07F
6HR MIN TEMP:  70; 6HR MAX TEMP:  72;

PELLSTON       MOCLDY    67  65  93 S3        30.04S
6HR MIN TEMP:  66; 6HR MAX TEMP:  68; 6HR PCP:  0.78;

ROGERS CITY    MOCLDY    68  66  92 S8        30.05F
TRAVERSE CITY  FAIR      70  67  90 SW5       30.05S
6HR MIN TEMP:  70; 6HR MAX TEMP:  74; 6HR PCP:  0.01;

$$
MIZ007>008-015-280700-
EASTERN UPPER MICHIGAN

CITY           SKY/WX    TMP DP  RH WIND       PRES   REMARKS
KINROSS        CLOUDY    67  66  97 S7        30.03F
6HR MIN TEMP:  62; 6HR MAX TEMP:  67; 6HR PCP:  0.79;

MACKINAC ISLAN CLOUDY    67  67 100 S7        30.03S FOG
6HR MIN TEMP:  65; 6HR MAX TEMP:  67; 6HR PCP:  0.30;

NEWBERRY       FOG       62  61  97 CALM      30.03F VSB 1/2
6HR MIN TEMP:  62; 6HR MAX TEMP:  63;

S. S. MARIE    CLOUDY    67  66  97 SE5       30.02F
6HR MIN TEMP:  62; 6HR MAX TEMP:  67; 6HR PCP:  0.67;

$$
MIZ004>006-011>014-085-280700-
CENTRAL UPPER MICHIGAN

CITY           SKY/WX    TMP DP  RH WIND       PRES   REMARKS
MANISTIQUE     CLOUDY    63  61  93 W3        30.05R
6HR MIN TEMP:  61; 6HR MAX TEMP:  64;

ESCANABA       CLOUDY    64  62  93 W3        30.07S
6HR MIN TEMP:  62; 6HR MAX TEMP:  65;

MENOMINEE      CLOUDY   N/A N/A N/A CALM      30.08S
SAWYER-GWINN   CLOUDY    61  59  93 W6        30.08R
6HR MIN TEMP:  60; 6HR MAX TEMP:  64;

$$
MIZ001>003-009>011-084-280700-
WESTERN UPPER MICHIGAN

CITY           SKY/WX    TMP DP  RH WIND       PRES   REMARKS
IRON MOUNTAIN  CLOUDY    63  59  87 CALM      30.07S
6HR MIN TEMP:  63; 6HR MAX TEMP:  65;

HOUGHTON       CLOUDY    62  60  93 CALM      30.05S
6HR MIN TEMP:  62; 6HR MAX TEMP:  65; 6HR PCP: TRACE;

$$

ABBREVIATIONS USED IN REMARKS
   TC - TEMPERATURE IN CELSIUS
  WCI - WIND CHILL INDEX
   HX - HEAT INDEX
  VSB - VISIBILITY





USA.gov is the U.S. government's official web portal to all federal, state and local government web resources and services.